[[{"header":{"parameterUnit":"m.s-1","parameterCategory":2,"la1":30.2991,"la2":30.254,"lo1":-89.0895,"lo2":-89.0444,"dy":0.0017,"dx":0.0017,"nx":28,"ny":28,"refTime":"2024-07-28T03:00:00:Z","depth":"0","parameterNumber":2,"parameterNumberName":"U-component_of_CURRENTS"},"data":[0,0,0,0,0,0,0,0,0,0,0,0,0,0,0,0,0,0,0,0,0,0,0,0,0,0,0,0,0,0,0,0,0,0,0,0,0,0,0,0,0,0,0,0,0,0,0,0,0,0,0,0,0,0,0,0,0,0,0.2248,0.2248,0,0.2216,0.2216,0.2215,0.2189,0.2189,0.2189,0.2189,0.2105,0.2103,0.2101,0,0,0,0,0,0,0,0,0,0,0,0,0,0.2214,0.2215,0.2248,0.2248,0.2248,0.2217,0.2216,0.2215,0.2189,0.2189,0.2189,0.2189,0.2106,0.2103,0.21,0,0,0,0,0,0,0,0,0,0,0,0,0,0.2207,0.2215,0.2248,0.2234,0.2233,0.2217,0.2216,0.2215,0.2189,0.2189,0.2189,0.2189,0.2107,0.2103,0.21,0.2076,0,0,0.2089,0.2088,0,0,0,0,0,0,0,0,0.2207,0.2208,0.2236,0.2235,0.2234,0.221,0.2173,0.2167,0.2189,0.2202,0.2189,0.2189,0.2138,0.2132,0.2121,0.2072,0.2069,0.2089,0.2087,0.2086,0.2085,0,0,0,0,0,0,0,0.2208,0.2208,0.2232,0.2236,0.2235,0.2205,0.2204,0.2171,0.2166,0.2201,0.22,0.2202,0.2136,0.2124,0.2119,0.2068,0.2089,0.2086,0.2084,0.2083,0.2016,0.2017,0,0,0,0,0,0,0.2223,0.2209,0.2233,0.2231,0.2225,0.2206,0.2205,0.2214,0.2167,0.2161,0.2202,0.2201,0.213,0.2123,0.2116,0.2116,0.2086,0.2082,0.208,0.2016,0.2016,0.2017,0,0,0,0,0,0,0.2223,0.2226,0.2234,0.2222,0.2221,0.2207,0.2218,0.2214,0.221,0.2169,0.2162,0.2204,0.213,0.212,0.2096,0.2111,0.2081,0.2078,0.2016,0.2016,0.2016,0.2096,0,0,0,0,0,0,0.2222,0.2226,0.2234,0.2224,0.2223,0.223,0.2218,0.2213,0.2213,0.2211,0.2168,0.216,0.2129,0.2101,0.2092,0.2106,0.2075,0.2015,0.2016,0.2016,0.2093,0.2099,0.2104,0,0,0,0,0,0.2221,0.2231,0.2235,0.2238,0.2236,0.2231,0.2227,0.2214,0.2213,0.2211,0.2186,0.2162,0.2099,0.2099,0.2088,0.2101,0.2015,0.2016,0.2016,0.209,0.2098,0.2104,0,0,0,0,0,0,0.222,0.223,0.2233,0.2247,0.2244,0.2228,0.2225,0.2221,0.22,0.2198,0.2162,0.2152,0.2133,0.2105,0.2106,0.2083,0.2054,0.2053,0.2114,0.212,0.2126,0.2135,0.2072,0,0,0,0,0,0.2227,0.2237,0.224,0.225,0.2251,0.2241,0.2238,0.2231,0.2215,0.2206,0.2178,0.2149,0.2126,0.2115,0.208,0.2069,0.2103,0.2071,0.2077,0.2082,0.2082,0.213,0.2142,0.2019,0.2019,0.2019,0,0,0.2231,0.2237,0.2243,0.225,0.2246,0.2246,0.2238,0.2237,0.2237,0.2199,0.2184,0.216,0.2124,0.2111,0.2101,0.2093,0.215,0.2083,0.2088,0.2084,0.2133,0.2145,0.2156,0.2019,0.2019,0.2019,0,0,0.2242,0.2249,0.2262,0.226,0.2262,0.2252,0.2258,0.2247,0.2242,0.223,0.2206,0.2195,0.2153,0.2139,0.2126,0.2141,0.2172,0.2133,0.2178,0.2226,0.2238,0.2248,0.2385,0.2406,0.2145,0.2145,0.2145,0,0.2246,0.2264,0.2262,0.2271,0.2272,0.226,0.2269,0.2259,0.2241,0.2246,0.2232,0.2201,0.2166,0.2172,0.2177,0.2155,0.2221,0.216,0.2238,0.2247,0.2256,0.2393,0.2416,0.2149,0.2148,0.2148,0.2148,0,0.2264,0.2278,0.2283,0.2291,0.2289,0.2292,0.2286,0.2283,0.2278,0.2275,0.2278,0.2245,0.2237,0.2226,0.2204,0.2249,0.2294,0.2237,0.2229,0.2274,0.2416,0.2438,0.2155,0.2153,0.2152,0.2151,0,0,0.2268,0.2294,0.2291,0.2306,0.2301,0.2302,0.2306,0.2313,0.2332,0.2315,0.2352,0.2311,0.2315,0.23,0.2284,0.2318,0.2456,0.2315,0.2315,0.2469,0.2652,0.2743,0.2776,0.2423,0.2425,0.2427,0.2756,0,0.2282,0.2305,0.2312,0.2327,0.2338,0.2335,0.2342,0.2346,0.2352,0.238,0.2373,0.239,0.234,0.2359,0.2384,0.242,0.2505,0.2377,0.2567,0.2575,0.2662,0.2799,0.2753,0.3044,0.2777,0.2781,0.2784,0,0.2287,0.2305,0.2329,0.2358,0.2364,0.2369,0.239,0.2401,0.2433,0.2449,0.2474,0.2478,0.2532,0.2475,0.2606,0.2536,0.2609,0.2644,0.2656,0.2718,0.2704,0.2937,0.3094,0.2979,0.2818,0.2815,0.2812,0,0.2279,0.2312,0.2334,0.234,0.2369,0.2384,0.2398,0.2421,0.2452,0.2513,0.2559,0.2603,0.266,0.2717,0.2796,0.272,0.2969,0.287,0.3042,0.3053,0.3036,0.3041,0.3108,0.2989,0.2989,0.2988,0.2987,0,0.228,0.229,0.2335,0.2345,0.2374,0.2396,0.2435,0.2458,0.252,0.2566,0.2604,0.2671,0.2718,0.2848,0.2888,0.3082,0.3063,0.3105,0.3143,0.3072,0.3075,0.2987,0.2891,0.3,0.2997,0.2995,0.2993,0,0.2247,0.2279,0.2308,0.2356,0.2372,0.2389,0.2453,0.2485,0.2556,0.2628,0.2663,0.2782,0.2953,0.3053,0.3201,0.3242,0.3307,0.3449,0.3418,0.3444,0.3448,0.3359,0.3346,0.3255,0.37,0.3704,0.3707,0,0.2229,0.2246,0.2306,0.2325,0.2345,0.2385,0.2411,0.2486,0.2532,0.2682,0.2727,0.2934,0.3052,0.338,0.3504,0.3708,0.3491,0.3788,0.3593,0.3502,0.3429,0.3196,0.3098,0.3648,0.3651,0.3653,0.3655,0,0.2194,0.2219,0.2244,0.2291,0.2325,0.2362,0.2417,0.2462,0.2555,0.2652,0.2797,0.2919,0.3253,0.3448,0.3754,0.3839,0.3598,0.3842,0.372,0.3398,0.3171,0.3084,0.3435,0.3675,0.3673,0.3671,0.367,0.367,0.2157,0.2166,0.2211,0.2246,0.2284,0.2318,0.2333,0.2414,0.2504,0.2621,0.2782,0.296,0.3287,0.37,0.38,0.3935,0.3768,0.3837,0.3757,0.3545,0.3365,0.3822,0.4093,0.4093,0.4093,0.4094,0.4094,0,0.2104,0.2127,0.2163,0.2196,0.2211,0.2258,0.2316,0.2329,0.2406,0.2572,0.271,0.3035,0.3325,0.3581,0.3874,0.3835,0.3621,0.3738,0.3347,0.3268,0.3692,0.3593,0.3798,0.3798,0.3798,0.3798,0.3798,0.3798,0.2075,0.2087,0.2113,0.2116,0.2139,0.2136,0.2156,0.2198,0.23,0.2465,0.2638,0.2813,0.3156,0.3498,0.3618,0.36,0.3288,0.3223,0.3118,0.337,0.3368,0.3366,0.3249,0.3379,0.3378,0.2575,0.2569,0.2564]},{"header":{"parameterUnit":"m.s-1","parameterCategory":2,"la1":30.2991,"la2":30.254,"lo1":-89.0895,"lo2":-89.0444,"dy":0.0017,"dx":0.0017,"nx":28,"ny":28,"refTime":"2024-07-28T03:00:00:Z","depth":"0","parameterNumber":3,"parameterNumberName":"V-component_of_CURRENTS"},"data":[0,0,0,0,0,0,0,0,0,0,0,0,0,0,0,0,0,0,0,0,0,0,0,0,0,0,0,0,0,0,0,0,0,0,0,0,0,0,0,0,0,0,0,0,0,0,0,0,0,0,0,0,0,0,0,0,0,0,-0.1052,-0.1053,0,-0.1144,-0.1145,-0.1146,-0.1185,-0.1185,-0.1185,-0.1185,-0.1289,-0.1292,-0.1295,0,0,0,0,0,0,0,0,0,0,0,0,0,-0.0941,-0.0942,-0.1052,-0.1053,-0.1055,-0.1144,-0.1145,-0.1146,-0.1185,-0.1185,-0.1185,-0.1185,-0.1289,-0.1292,-0.1295,0,0,0,0,0,0,0,0,0,0,0,0,0,-0.1005,-0.0943,-0.1052,-0.1086,-0.109,-0.1144,-0.1145,-0.1147,-0.1185,-0.1185,-0.1185,-0.1185,-0.1287,-0.1292,-0.1296,-0.1321,0,0,-0.1308,-0.131,0,0,0,0,0,0,0,0,-0.1001,-0.1009,-0.108,-0.1084,-0.1089,-0.1155,-0.1144,-0.1206,-0.1185,-0.1147,-0.1185,-0.1185,-0.1247,-0.1254,-0.1269,-0.1326,-0.1331,-0.1309,-0.1311,-0.1313,-0.1314,0,0,0,0,0,0,0,-0.0997,-0.1005,-0.1087,-0.1081,-0.1087,-0.1108,-0.1116,-0.1156,-0.1195,-0.1151,-0.1154,-0.1167,-0.1249,-0.1265,-0.1272,-0.1332,-0.1309,-0.1312,-0.1315,-0.1317,-0.1424,-0.1425,0,0,0,0,0,0,-0.0988,-0.1001,-0.1084,-0.109,-0.1046,-0.111,-0.1119,-0.1132,-0.1194,-0.1204,-0.1167,-0.1169,-0.1258,-0.1267,-0.1276,-0.1297,-0.1313,-0.1317,-0.1319,-0.1424,-0.1424,-0.1425,0,0,0,0,0,0,-0.0985,-0.0994,-0.108,-0.1049,-0.1061,-0.1112,-0.1126,-0.1134,-0.1153,-0.1207,-0.1217,-0.1178,-0.1258,-0.127,-0.1305,-0.1302,-0.1319,-0.1323,-0.1424,-0.1424,-0.1425,-0.1348,0,0,0,0,0,0,-0.0981,-0.0992,-0.0999,-0.1048,-0.1063,-0.1107,-0.1126,-0.1136,-0.1162,-0.1165,-0.122,-0.1229,-0.1259,-0.1299,-0.1309,-0.1308,-0.1326,-0.1423,-0.1424,-0.1425,-0.135,-0.1346,-0.1342,0,0,0,0,0,-0.0977,-0.0986,-0.0999,-0.1009,-0.107,-0.1107,-0.1116,-0.1151,-0.1162,-0.1168,-0.1202,-0.1228,-0.1311,-0.1302,-0.1315,-0.1314,-0.1423,-0.1424,-0.1424,-0.1352,-0.1347,-0.1343,0,0,0,0,0,0,-0.0943,-0.0993,-0.1008,-0.1032,-0.1064,-0.1114,-0.1127,-0.1151,-0.1183,-0.1184,-0.1231,-0.1243,-0.1272,-0.1309,-0.1298,-0.135,-0.1372,-0.1376,-0.1313,-0.1309,-0.1305,-0.1269,-0.1329,0,0,0,0,0,-0.0938,-0.0957,-0.1004,-0.1023,-0.1036,-0.108,-0.1101,-0.1122,-0.1159,-0.1173,-0.1212,-0.1254,-0.1286,-0.1308,-0.1344,-0.1374,-0.1367,-0.1385,-0.1381,-0.1377,-0.1358,-0.136,-0.1353,-0.1428,-0.1428,-0.1428,0,0,-0.093,-0.0961,-0.0971,-0.1017,-0.1043,-0.105,-0.1092,-0.1117,-0.1124,-0.118,-0.1202,-0.1241,-0.1291,-0.1317,-0.1335,-0.1347,-0.1346,-0.1378,-0.1374,-0.1357,-0.1359,-0.1352,-0.1345,-0.1428,-0.1428,-0.1428,0,0,-0.0912,-0.0948,-0.095,-0.0971,-0.1009,-0.1035,-0.104,-0.1087,-0.1109,-0.1138,-0.1174,-0.1207,-0.1269,-0.1295,-0.1317,-0.1318,-0.1323,-0.1339,-0.1292,-0.1294,-0.1286,-0.128,-0.1222,-0.1211,-0.134,-0.134,-0.134,0,-0.0894,-0.0905,-0.0956,-0.0956,-0.0963,-0.1021,-0.1009,-0.1044,-0.1097,-0.1107,-0.1135,-0.1202,-0.1254,-0.1267,-0.127,-0.1306,-0.1286,-0.1301,-0.1284,-0.1278,-0.1273,-0.1215,-0.1204,-0.1336,-0.1337,-0.1337,-0.1337,0,-0.0868,-0.0877,-0.0879,-0.0894,-0.091,-0.0914,-0.0958,-0.0978,-0.1014,-0.1046,-0.1075,-0.1138,-0.1172,-0.1203,-0.1239,-0.1233,-0.1219,-0.1273,-0.1285,-0.126,-0.1201,-0.1191,-0.1331,-0.1332,-0.1333,-0.1334,0,0,-0.0804,-0.085,-0.0842,-0.0836,-0.0872,-0.0876,-0.089,-0.0911,-0.09,-0.097,-0.0952,-0.1036,-0.1069,-0.1096,-0.1147,-0.116,-0.111,-0.1196,-0.1198,-0.1115,-0.1056,-0.0991,-0.0973,-0.1157,-0.1156,-0.1155,-0.1014,0,-0.0754,-0.074,-0.0776,-0.0748,-0.0737,-0.0785,-0.0785,-0.0815,-0.0849,-0.0852,-0.0925,-0.0933,-0.103,-0.1029,-0.1063,-0.1093,-0.1086,-0.1139,-0.1112,-0.1109,-0.1038,-0.0961,-0.0931,-0.0798,-0.1004,-0.1002,-0.1001,0,-0.0687,-0.0692,-0.0659,-0.0665,-0.0661,-0.0651,-0.0639,-0.065,-0.0684,-0.0707,-0.0741,-0.0793,-0.0816,-0.0904,-0.0933,-0.0958,-0.0996,-0.1027,-0.1024,-0.0981,-0.1026,-0.0868,-0.0773,-0.0941,-0.0986,-0.0987,-0.0988,0,-0.0591,-0.0595,-0.0565,-0.0566,-0.0588,-0.057,-0.0573,-0.0597,-0.0584,-0.0598,-0.057,-0.0636,-0.0626,-0.0706,-0.0786,-0.085,-0.079,-0.0893,-0.0859,-0.0853,-0.0829,-0.0823,-0.0877,-0.0901,-0.0902,-0.0902,-0.0902,0,-0.0509,-0.0478,-0.0515,-0.0495,-0.0444,-0.0482,-0.0425,-0.0442,-0.0433,-0.0388,-0.0479,-0.0432,-0.0579,-0.0582,-0.0694,-0.0703,-0.0715,-0.0805,-0.0808,-0.0798,-0.0791,-0.0943,-0.1063,-0.0897,-0.0898,-0.0899,-0.09,0,-0.0404,-0.043,-0.0396,-0.0406,-0.0399,-0.0357,-0.0331,-0.0291,-0.0289,-0.0219,-0.0207,-0.024,-0.0233,-0.0346,-0.0426,-0.0537,-0.0645,-0.0596,-0.0536,-0.0535,-0.0692,-0.0807,-0.079,-0.0848,-0.0529,-0.0527,-0.0525,0,-0.0351,-0.0328,-0.0321,-0.0294,-0.0293,-0.0247,-0.0213,-0.0216,-0.0172,-0.0096,-0.0045,-0.0005,0.0027,-0.0023,-0.0193,-0.0296,-0.0503,-0.0357,-0.0505,-0.0648,-0.0782,-0.0852,-0.0911,-0.0426,-0.0423,-0.0421,-0.0419,0,-0.0257,-0.0259,-0.024,-0.0191,-0.0147,-0.0098,-0.0048,0.001,0.003,0.0114,0.0229,0.028,0.0242,0.0176,0.004,-0.009,-0.0458,-0.0313,-0.0501,-0.0714,-0.0755,-0.0829,-0.054,-0.0399,-0.0401,-0.0403,-0.0404,-0.0405,-0.0186,-0.0154,-0.0137,-0.0083,-0.0031,0.0047,0.0116,0.0185,0.0296,0.0454,0.0462,0.0624,0.0461,0.0285,0.0085,-0.0255,-0.0304,-0.0404,-0.0524,-0.0572,-0.0664,-0.0285,-0.0143,-0.0143,-0.0144,-0.0144,-0.0144,0,-0.0105,-0.0084,-0.0032,0.0031,0.0108,0.0112,0.0221,0.0316,0.0477,0.0664,0.0798,0.0892,0.0656,0.0356,-0.0083,-0.0404,-0.058,-0.0605,-0.0757,-0.0806,-0.0493,-0.053,-0.0418,-0.0418,-0.0418,-0.0418,-0.0418,-0.0418,-0.0061,-0.0007,0.0009,0.0138,0.0192,0.0317,0.0392,0.0552,0.0711,0.102,0.1218,0.1329,0.1128,0.018,-0.0507,-0.0711,-0.0994,-0.1006,-0.1156,-0.1036,-0.103,-0.1024,-0.1088,-0.1095,-0.1096,-0.142,-0.1424,-0.1427]}],[{"header":{"parameterUnit":"m.s-1","parameterCategory":2,"la1":30.2991,"la2":30.254,"lo1":-89.0895,"lo2":-89.0444,"dy":0.0017,"dx":0.0017,"nx":28,"ny":28,"refTime":"2024-07-28T03:00:00:Z","depth":"2","parameterNumber":2,"parameterNumberName":"U-component_of_CURRENTS"},"data":[0,0,0,0,0,0,0,0,0,0,0,0,0,0,0,0,0,0,0,0,0,0,0,0,0,0,0,0,0,0,0,0,0,0,0,0,0,0,0,0,0,0,0,0,0,0,0,0,0,0,0,0,0,0,0,0,0,0,0.0451,0.0452,0,0.0539,0.054,0.0541,0.0583,0.0583,0.0583,0.0582,0.0663,0.0665,0.0667,0,0,0,0,0,0,0,0,0,0,0,0,0,0.0349,0.035,0.0451,0.0452,0.0453,0.0539,0.054,0.0542,0.0583,0.0583,0.0583,0.0582,0.0662,0.0665,0.0667,0,0,0,0,0,0,0,0,0,0,0,0,0,0.0412,0.0351,0.0451,0.0483,0.0487,0.0539,0.054,0.0542,0.0583,0.0583,0.0583,0.0582,0.0661,0.0664,0.0668,0.0694,0,0,0.0678,0.068,0,0,0,0,0,0,0,0,0.0408,0.0416,0.0477,0.0481,0.0485,0.0549,0.0534,0.0592,0.0583,0.0548,0.0582,0.0582,0.0623,0.063,0.0649,0.0698,0.0701,0.0679,0.0681,0.0682,0.0683,0,0,0,0,0,0,0,0.0404,0.0412,0.0487,0.0478,0.0483,0.0504,0.0512,0.0545,0.0587,0.0551,0.0554,0.0562,0.0625,0.0645,0.0651,0.0702,0.0678,0.0681,0.0684,0.0685,0.0847,0.085,0,0,0,0,0,0,0.0389,0.0408,0.0484,0.049,0.0444,0.0505,0.0515,0.053,0.0587,0.0595,0.0562,0.0563,0.064,0.0647,0.0654,0.0747,0.0682,0.0685,0.0687,0.0845,0.0848,0.085,0,0,0,0,0,0,0.0387,0.0396,0.0481,0.0449,0.0461,0.0507,0.0523,0.0531,0.0566,0.0595,0.0603,0.0589,0.064,0.0649,0.0707,0.0748,0.0687,0.069,0.0843,0.0846,0.0849,0.0896,0,0,0,0,0,0,0.0384,0.0394,0.0408,0.0449,0.0463,0.0527,0.0524,0.0533,0.0569,0.0573,0.062,0.0627,0.064,0.0702,0.071,0.0752,0.0693,0.084,0.0844,0.0848,0.0891,0.09,0.0908,0,0,0,0,0,0.038,0.0402,0.0408,0.0418,0.0477,0.0529,0.0539,0.057,0.0571,0.0598,0.0631,0.0626,0.0735,0.0706,0.0716,0.0759,0.0838,0.0843,0.0848,0.0888,0.0899,0.0908,0,0,0,0,0,0,0.0368,0.0409,0.0417,0.0451,0.0491,0.0535,0.0564,0.0579,0.0627,0.0632,0.0653,0.0663,0.0733,0.0741,0.0709,0.082,0.0787,0.0794,0.0814,0.0824,0.0832,0.0835,0.0695,0,0,0,0,0,0.0369,0.0396,0.0437,0.0466,0.0488,0.0527,0.0553,0.0574,0.0615,0.0637,0.067,0.0711,0.0761,0.0786,0.0829,0.0884,0.0922,0.092,0.0928,0.0935,0.0946,0.103,0.1046,0.0867,0.0867,0.0867,0,0,0.0372,0.0399,0.0413,0.0466,0.05,0.0548,0.0544,0.059,0.0636,0.0638,0.0713,0.0744,0.0784,0.0854,0.0885,0.0864,0.1014,0.0942,0.0947,0.0954,0.1037,0.1054,0.107,0.087,0.087,0.0869,0,0,0.0396,0.0417,0.0451,0.0487,0.0539,0.0569,0.0585,0.064,0.0672,0.0738,0.0759,0.0814,0.0881,0.0925,0.0952,0.1032,0.1058,0.1047,0.1087,0.1169,0.1184,0.1198,0.1298,0.132,0.1046,0.1046,0.1046,0,0.0399,0.0444,0.047,0.0516,0.055,0.0582,0.063,0.0675,0.0742,0.0778,0.0769,0.0893,0.0919,0.1014,0.1042,0.1052,0.1107,0.1041,0.118,0.1194,0.1207,0.1305,0.1329,0.1049,0.1049,0.1048,0.1048,0,0.045,0.0489,0.0516,0.0583,0.0625,0.0671,0.0727,0.0778,0.081,0.0852,0.0947,0.0988,0.1059,0.1079,0.1085,0.1197,0.1211,0.1182,0.1149,0.1228,0.1327,0.1351,0.1053,0.1052,0.1051,0.105,0,0,0.0455,0.0534,0.0545,0.0581,0.066,0.0699,0.0781,0.0864,0.0923,0.0982,0.1065,0.1143,0.1159,0.1192,0.1211,0.1272,0.1417,0.1268,0.1271,0.136,0.1627,0.1531,0.1548,0.1412,0.1416,0.1419,0.1669,0,0.0492,0.0568,0.0606,0.0689,0.0734,0.0787,0.086,0.0936,0.1001,0.1091,0.1143,0.1232,0.1206,0.1248,0.1308,0.1397,0.1479,0.1354,0.1544,0.1551,0.1449,0.1571,0.1404,0.1602,0.1692,0.1696,0.1699,0,0.0533,0.0578,0.0653,0.0737,0.0763,0.082,0.0933,0.1003,0.1127,0.1178,0.1263,0.1313,0.1435,0.1384,0.158,0.1505,0.1577,0.1629,0.1639,0.1546,0.1498,0.1534,0.1642,0.1739,0.1736,0.1733,0.173,0,0.0519,0.0612,0.0667,0.0698,0.0801,0.0851,0.0914,0.1032,0.111,0.1247,0.1325,0.1445,0.154,0.1634,0.1742,0.1684,0.195,0.1882,0.1872,0.1867,0.1759,0.1736,0.2027,0.2026,0.2026,0.2025,0.2024,0,0.054,0.0586,0.0665,0.0697,0.0778,0.0848,0.0955,0.1032,0.1167,0.1279,0.137,0.1485,0.1608,0.1759,0.1817,0.1937,0.2025,0.1917,0.1931,0.1771,0.1748,0.1873,0.1851,0.2034,0.2032,0.2031,0.2029,0,0.0521,0.0572,0.0638,0.0736,0.0775,0.0832,0.0976,0.1051,0.1182,0.1337,0.1394,0.1581,0.1776,0.1897,0.2088,0.2049,0.2157,0.2173,0.1983,0.1966,0.2005,0.1984,0.2196,0.2194,0.2193,0.2193,0.2192,0,0.0518,0.0547,0.0648,0.0689,0.0739,0.0836,0.0907,0.1045,0.1138,0.1391,0.1468,0.1706,0.1837,0.2078,0.2094,0.2204,0.2239,0.2074,0.1898,0.2034,0.2027,0.2007,0.1987,0.1811,0.1807,0.1804,0.1802,0,0.0502,0.0535,0.0582,0.0666,0.074,0.0831,0.0948,0.1021,0.1201,0.1339,0.1544,0.167,0.189,0.1915,0.2024,0.2042,0.2026,0.2008,0.2267,0.1749,0.1679,0.1668,0.1661,0.1775,0.1777,0.1779,0.1781,0.1782,0.0479,0.0501,0.0561,0.0641,0.072,0.0809,0.0872,0.0997,0.1135,0.1316,0.147,0.1602,0.1679,0.1739,0.1778,0.181,0.1898,0.1802,0.181,0.1821,0.1687,0.1613,0.1676,0.1678,0.1679,0.1681,0.1682,0,0.0449,0.0484,0.0539,0.0626,0.0684,0.0762,0.0887,0.0929,0.1051,0.1219,0.135,0.129,0.1347,0.1493,0.1478,0.1475,0.1451,0.1452,0.1402,0.1429,0.1454,0.1298,0.1186,0.1185,0.1184,0.1183,0,0,0.0434,0.0464,0.0495,0.057,0.0639,0.0716,0.0777,0.084,0.0944,0.1011,0.1086,0.1194,0.1354,0.1193,0.1218,0.1216,0.1309,0.1182,0.1574,0.1537,0.1559,0.1646,0.1435,0,0,0,0,0]},{"header":{"parameterUnit":"m.s-1","parameterCategory":2,"la1":30.2991,"la2":30.254,"lo1":-89.0895,"lo2":-89.0444,"dy":0.0017,"dx":0.0017,"nx":28,"ny":28,"refTime":"2024-07-28T03:00:00:Z","depth":"2","parameterNumber":3,"parameterNumberName":"V-component_of_CURRENTS"},"data":[0,0,0,0,0,0,0,0,0,0,0,0,0,0,0,0,0,0,0,0,0,0,0,0,0,0,0,0,0,0,0,0,0,0,0,0,0,0,0,0,0,0,0,0,0,0,0,0,0,0,0,0,0,0,0,0,0,0,0.0335,0.0335,0,0.0341,0.0341,0.0341,0.036,0.036,0.0361,0.0361,0.037,0.037,0.037,0,0,0,0,0,0,0,0,0,0,0,0,0,0.0346,0.0346,0.0335,0.0335,0.0335,0.0341,0.0341,0.0341,0.036,0.036,0.0361,0.0361,0.037,0.037,0.037,0,0,0,0,0,0,0,0,0,0,0,0,0,0.0347,0.0346,0.0335,0.0344,0.0345,0.0341,0.0341,0.0342,0.036,0.036,0.0361,0.0361,0.037,0.037,0.037,0.0362,0,0,0.037,0.037,0,0,0,0,0,0,0,0,0.0347,0.0347,0.0343,0.0343,0.0344,0.0349,0.0348,0.0348,0.036,0.0356,0.0361,0.0361,0.0362,0.0363,0.0365,0.0363,0.0363,0.037,0.037,0.037,0.037,0,0,0,0,0,0,0,0.0347,0.0347,0.0339,0.0343,0.0343,0.0349,0.035,0.0349,0.0358,0.0356,0.0357,0.0355,0.0363,0.0365,0.0366,0.0363,0.037,0.037,0.037,0.037,0.0357,0.0357,0,0,0,0,0,0,0.0342,0.0346,0.0339,0.0339,0.0345,0.0349,0.0349,0.0348,0.0358,0.0359,0.0355,0.0356,0.0365,0.0366,0.0366,0.0373,0.037,0.037,0.037,0.0357,0.0357,0.0356,0,0,0,0,0,0,0.0342,0.0341,0.0339,0.0342,0.0342,0.0348,0.0346,0.0348,0.0357,0.0356,0.0358,0.0362,0.0365,0.0366,0.037,0.0373,0.037,0.037,0.0358,0.0357,0.0357,0.0377,0,0,0,0,0,0,0.0342,0.0341,0.0342,0.0341,0.0341,0.0347,0.0346,0.0348,0.0354,0.0355,0.0363,0.0364,0.0366,0.037,0.037,0.0373,0.037,0.0358,0.0357,0.0357,0.0377,0.0378,0.0378,0,0,0,0,0,0.0343,0.0346,0.0342,0.0341,0.034,0.0348,0.0349,0.0355,0.0354,0.0363,0.0363,0.0364,0.0366,0.037,0.037,0.0373,0.0358,0.0358,0.0357,0.0377,0.0378,0.0378,0,0,0,0,0,0,0.0355,0.0347,0.0343,0.0344,0.0348,0.0351,0.0361,0.0357,0.0364,0.0368,0.0364,0.0365,0.037,0.0364,0.0369,0.0365,0.036,0.0359,0.0375,0.0376,0.0376,0.0378,0.037,0,0,0,0,0,0.0354,0.0354,0.035,0.0353,0.0357,0.0357,0.0361,0.0364,0.0367,0.0371,0.0373,0.037,0.0365,0.0366,0.0365,0.0364,0.0331,0.0363,0.0363,0.0364,0.0363,0.0302,0.0297,0.0354,0.0354,0.0354,0,0,0.0359,0.0355,0.0355,0.0355,0.0361,0.0377,0.0362,0.0374,0.0385,0.037,0.0389,0.0376,0.0365,0.0367,0.0367,0.0364,0.0331,0.0363,0.0363,0.0363,0.0301,0.0295,0.029,0.0353,0.0353,0.0353,0,0,0.0379,0.0368,0.0381,0.0387,0.0394,0.0394,0.0398,0.0402,0.0405,0.0411,0.04,0.0386,0.0387,0.0376,0.0369,0.0368,0.0337,0.0366,0.0371,0.0312,0.0306,0.0301,0.0255,0.0246,0.0365,0.0365,0.0365,0,0.0386,0.0399,0.0388,0.0407,0.0416,0.0404,0.0428,0.0428,0.0432,0.0429,0.0423,0.0397,0.0391,0.0376,0.0375,0.0371,0.0331,0.0373,0.0312,0.0306,0.0301,0.0255,0.0244,0.0366,0.0366,0.0366,0.0365,0,0.0419,0.0433,0.0445,0.0462,0.0471,0.0488,0.0485,0.0489,0.0481,0.0473,0.0455,0.0429,0.0409,0.0401,0.0389,0.0349,0.0332,0.0321,0.0312,0.0296,0.0249,0.0237,0.0367,0.0367,0.0366,0.0366,0,0,0.0423,0.0461,0.0464,0.0486,0.05,0.0511,0.0526,0.053,0.0535,0.0512,0.0503,0.0473,0.044,0.0428,0.0399,0.0346,0.0275,0.0316,0.0312,0.0273,0.0142,0.0114,0.0099,0.0245,0.0243,0.0242,0.0126,0,0.0453,0.0503,0.0509,0.0554,0.0582,0.0575,0.0589,0.0587,0.0575,0.0564,0.0508,0.0493,0.0455,0.0437,0.0376,0.0309,0.0245,0.0308,0.0161,0.0157,0.0136,0.0085,0.0091,-0.0014,0.0115,0.0113,0.0112,0,0.0479,0.0511,0.0564,0.0602,0.0612,0.0632,0.0644,0.0654,0.0629,0.0614,0.0569,0.0532,0.0462,0.0425,0.0279,0.0317,0.0227,0.0164,0.0158,0.0116,0.0107,0.0021,-0.004,0.0092,0.0094,0.0095,0.0096,0,0.0489,0.0543,0.0587,0.0602,0.0644,0.0658,0.067,0.0666,0.0683,0.0639,0.064,0.0544,0.0505,0.0372,0.0254,0.0253,0.0089,0.0074,-0.0041,-0.0043,-0.0074,-0.0076,-0.0053,-0.0053,-0.0053,-0.0053,-0.0052,0,0.0514,0.0546,0.0596,0.0622,0.0669,0.0679,0.0715,0.0711,0.0713,0.0736,0.066,0.0655,0.0486,0.0388,0.0255,0.0078,0.0083,-0.0056,-0.0085,-0.0066,-0.0066,0.0003,0.0011,-0.0057,-0.0056,-0.0055,-0.0054,0,0.0523,0.0554,0.061,0.0663,0.068,0.0711,0.0763,0.0793,0.0778,0.0804,0.0793,0.0726,0.0591,0.0427,0.0223,0.0091,-0.0077,-0.0142,-0.0099,-0.0122,-0.0175,-0.0164,-0.0304,-0.0306,-0.0308,-0.031,-0.0311,0,0.0533,0.0566,0.0642,0.0682,0.0711,0.0759,0.0802,0.0821,0.0861,0.0859,0.0881,0.0771,0.0702,0.0399,0.0141,-0.012,-0.011,-0.0274,-0.0286,-0.0192,-0.0206,-0.0192,-0.0179,-0.0317,-0.0318,-0.0319,-0.032,0,0.0561,0.0589,0.064,0.0724,0.0784,0.0859,0.0919,0.0962,0.0985,0.1001,0.1015,0.0957,0.0668,0.039,0.0034,-0.0124,-0.0235,-0.0305,-0.0237,-0.0246,-0.0211,-0.0222,-0.0208,-0.0329,-0.0328,-0.0327,-0.0327,-0.0327,0.058,0.0626,0.0698,0.0777,0.0851,0.0952,0.1022,0.1078,0.1142,0.1131,0.1068,0.0936,0.0643,0.0143,-0.0084,-0.0314,-0.0323,-0.0417,-0.041,-0.0404,-0.0377,-0.0347,-0.0484,-0.0484,-0.0484,-0.0484,-0.0484,0,0.0616,0.0674,0.0749,0.0863,0.0961,0.099,0.1105,0.1158,0.1233,0.1144,0.1082,0.0719,0.0415,0.0148,-0.0223,-0.0454,-0.0437,-0.0489,-0.0428,-0.042,-0.0412,-0.0382,-0.0493,-0.0493,-0.0493,-0.0493,0,0,0.0643,0.0722,0.0769,0.0937,0.1022,0.1163,0.1236,0.1279,0.1249,0.1104,0.0956,0.072,0.0417,0.013,-0.015,-0.0307,-0.0297,-0.0328,-0.0308,-0.0196,-0.0184,-0.0372,-0.0316,0,0,0,0,0]}],[{"header":{"parameterUnit":"m.s-1","parameterCategory":2,"la1":30.2991,"la2":30.254,"lo1":-89.0895,"lo2":-89.0444,"dy":0.0017,"dx":0.0017,"nx":28,"ny":28,"refTime":"2024-07-28T03:00:00:Z","depth":"4","parameterNumber":2,"parameterNumberName":"U-component_of_CURRENTS"},"data":[0,0,0,0,0,0,0,0,0,0,0,0,0,0,0,0,0,0,0,0,0,0,0,0,0,0,0,0,0,0,0,0,0,0,0,0,0,0,0,0,0,0,0,0,0,0,0,0,0,0,0,0,0,0,0,0,0,0,0.034,0.0341,0,0.0371,0.0371,0.0372,0.0397,0.0398,0.0399,0.0399,0.0441,0.0441,0.0442,0,0,0,0,0,0,0,0,0,0,0,0,0,0.0304,0.0304,0.034,0.0341,0.0341,0.0371,0.0371,0.0372,0.0397,0.0398,0.0399,0.0399,0.0441,0.0441,0.0442,0,0,0,0,0,0,0,0,0,0,0,0,0,0.0323,0.0304,0.034,0.036,0.0362,0.0371,0.0371,0.0372,0.0397,0.0398,0.0399,0.04,0.044,0.0441,0.0442,0.0431,0,0,0.0445,0.0445,0,0,0,0,0,0,0,0,0.0322,0.0324,0.0357,0.0359,0.0361,0.0384,0.0374,0.0393,0.0397,0.0381,0.0399,0.04,0.0424,0.0426,0.0426,0.0433,0.0435,0.0445,0.0446,0.0446,0.0446,0,0,0,0,0,0,0,0.032,0.0323,0.0349,0.0357,0.036,0.0368,0.0371,0.0378,0.0395,0.0382,0.0385,0.0393,0.0425,0.0425,0.0427,0.0435,0.0445,0.0446,0.0446,0.0447,0.0469,0.0469,0,0,0,0,0,0,0.0322,0.0321,0.0348,0.0351,0.0347,0.0368,0.0372,0.0373,0.0395,0.04,0.0392,0.0394,0.0423,0.0426,0.0429,0.0462,0.0446,0.0447,0.0447,0.0469,0.0469,0.0469,0,0,0,0,0,0,0.0321,0.0323,0.0347,0.034,0.0344,0.0368,0.037,0.0374,0.0399,0.0403,0.0408,0.0417,0.0424,0.0428,0.0451,0.0462,0.0447,0.0448,0.0469,0.0469,0.0469,0.0499,0,0,0,0,0,0,0.0319,0.0323,0.033,0.0339,0.0344,0.0363,0.0369,0.0374,0.0402,0.0406,0.0425,0.0428,0.0425,0.0449,0.0452,0.0463,0.0449,0.0469,0.0469,0.0469,0.0498,0.05,0.0502,0,0,0,0,0,0.0318,0.0326,0.033,0.0334,0.0351,0.0363,0.0366,0.0385,0.0403,0.0411,0.0427,0.0429,0.0451,0.0451,0.0453,0.0465,0.0469,0.0469,0.0469,0.0497,0.05,0.0502,0,0,0,0,0,0,0.0314,0.033,0.0334,0.0347,0.0359,0.0369,0.0389,0.0399,0.0418,0.0434,0.0435,0.0439,0.0459,0.0457,0.0456,0.0469,0.0458,0.0459,0.0478,0.0481,0.0483,0.0499,0.0449,0,0,0,0,0,0.0316,0.033,0.0339,0.0352,0.0364,0.038,0.0393,0.0405,0.0422,0.0433,0.0443,0.0453,0.0456,0.0468,0.0467,0.0483,0.0481,0.0489,0.0491,0.0492,0.0506,0.0501,0.0504,0.047,0.047,0.047,0,0,0.0317,0.0331,0.0338,0.0353,0.0371,0.0383,0.039,0.042,0.0432,0.0434,0.0462,0.0464,0.0461,0.0472,0.0481,0.0478,0.0501,0.0493,0.0494,0.0507,0.0502,0.0505,0.0508,0.047,0.047,0.047,0,0,0.0328,0.0344,0.0358,0.0369,0.04,0.0406,0.042,0.0441,0.0457,0.0477,0.0477,0.049,0.05,0.0495,0.0495,0.0509,0.0509,0.051,0.054,0.0535,0.0538,0.0541,0.0545,0.0547,0.0514,0.0514,0.0514,0,0.033,0.0346,0.0364,0.038,0.0396,0.042,0.0435,0.0449,0.0472,0.0488,0.0493,0.0511,0.0508,0.0519,0.0523,0.0515,0.0518,0.0533,0.0539,0.0542,0.0544,0.0547,0.055,0.0516,0.0516,0.0515,0.0515,0,0.0344,0.0362,0.0378,0.0402,0.0417,0.0441,0.0459,0.0481,0.0507,0.0517,0.0545,0.0541,0.0556,0.0548,0.0545,0.0559,0.0559,0.054,0.0536,0.055,0.0551,0.0554,0.0518,0.0517,0.0517,0.0517,0,0,0.033,0.0377,0.0383,0.04,0.0434,0.0448,0.0477,0.0503,0.0529,0.0552,0.0577,0.0584,0.06,0.06,0.0593,0.0592,0.0607,0.0584,0.0583,0.0594,0.061,0.0623,0.0627,0.0594,0.0594,0.0595,0.0606,0,0.0336,0.037,0.039,0.0421,0.0441,0.047,0.0491,0.0521,0.0548,0.0575,0.059,0.0615,0.0613,0.063,0.0629,0.0609,0.0615,0.0606,0.0591,0.0591,0.0605,0.0631,0.0596,0.0607,0.0608,0.0608,0.0609,0,0.0337,0.0363,0.0397,0.0439,0.0452,0.0473,0.052,0.0543,0.0584,0.0609,0.0644,0.0659,0.068,0.0667,0.0666,0.0665,0.0652,0.0633,0.0632,0.0639,0.0609,0.0589,0.0613,0.0612,0.0612,0.0612,0.0612,0,0.0319,0.0365,0.0396,0.041,0.0458,0.0486,0.0516,0.0561,0.0588,0.0643,0.067,0.0696,0.0717,0.0706,0.0698,0.0685,0.0686,0.0651,0.0652,0.0652,0.0623,0.062,0.0652,0.0652,0.0652,0.0652,0.0652,0,0.0312,0.0336,0.0397,0.0412,0.0452,0.0491,0.0535,0.0571,0.062,0.065,0.0698,0.0717,0.0731,0.0738,0.0714,0.0707,0.0704,0.0674,0.0661,0.0635,0.0633,0.0625,0.0622,0.0653,0.0652,0.0652,0.0652,0,0.0289,0.0327,0.0363,0.0424,0.0446,0.0479,0.0546,0.0572,0.0633,0.0671,0.0697,0.0745,0.0769,0.0778,0.0759,0.0735,0.0714,0.071,0.0705,0.0689,0.0677,0.0675,0.0705,0.0706,0.0707,0.0707,0.0707,0,0.028,0.0299,0.0366,0.0391,0.0424,0.0478,0.051,0.0575,0.06,0.0673,0.0681,0.0744,0.077,0.0762,0.0766,0.0758,0.0745,0.0735,0.0693,0.07,0.0685,0.0682,0.0679,0.0708,0.0708,0.0709,0.0709,0,0.0258,0.0289,0.032,0.0374,0.0415,0.0452,0.0504,0.0521,0.0589,0.0639,0.0673,0.0706,0.074,0.075,0.0778,0.0752,0.0739,0.074,0.0738,0.0698,0.0704,0.0687,0.0684,0.0711,0.071,0.071,0.071,0,0.0243,0.026,0.0307,0.0353,0.0397,0.0426,0.0454,0.0494,0.0533,0.0615,0.0614,0.0677,0.0722,0.0746,0.0747,0.0764,0.0741,0.0701,0.07,0.0698,0.0695,0.0702,0.0712,0,0,0,0,0,0.0225,0.0247,0.0283,0.0332,0.0372,0.04,0.0448,0.0475,0.0532,0.0549,0.059,0.0623,0.0672,0.0693,0.0709,0.074,0.0738,0.0756,0.069,0.0722,0.0719,0.0719,0,0,0,0,0,0,0.0214,0.0247,0.0272,0.0307,0.0333,0.0373,0.0403,0.0439,0.0454,0.0514,0.0541,0.0594,0.0642,0.066,0.0698,0.0709,0.0659,0.0797,0.0796,0.0723,0.0721,0.0719,0.0718,0,0,0,0,0]},{"header":{"parameterUnit":"m.s-1","parameterCategory":2,"la1":30.2991,"la2":30.254,"lo1":-89.0895,"lo2":-89.0444,"dy":0.0017,"dx":0.0017,"nx":28,"ny":28,"refTime":"2024-07-28T03:00:00:Z","depth":"4","parameterNumber":3,"parameterNumberName":"V-component_of_CURRENTS"},"data":[0,0,0,0,0,0,0,0,0,0,0,0,0,0,0,0,0,0,0,0,0,0,0,0,0,0,0,0,0,0,0,0,0,0,0,0,0,0,0,0,0,0,0,0,0,0,0,0,0,0,0,0,0,0,0,0,0,0,0.0058,0.0057,0,0.0018,0.0018,0.0017,-0.0031,-0.0032,-0.0032,-0.0033,-0.0126,-0.0128,-0.013,0,0,0,0,0,0,0,0,0,0,0,0,0,0.007,0.007,0.0058,0.0057,0.0057,0.0018,0.0018,0.0017,-0.0031,-0.0032,-0.0032,-0.0033,-0.0125,-0.0127,-0.013,0,0,0,0,0,0,0,0,0,0,0,0,0,0.0049,0.007,0.0058,0.003,0.0027,0.0018,0.0017,0.0017,-0.0031,-0.0032,-0.0032,-0.0033,-0.0124,-0.0127,-0.013,-0.0131,0,0,-0.0139,-0.014,0,0,0,0,0,0,0,0,0.005,0.0048,0.0034,0.0032,0.0029,-0.0001,-0.0012,-0.0035,-0.0031,-0.0011,-0.0033,-0.0034,-0.0087,-0.0093,-0.0101,-0.0136,-0.014,-0.0139,-0.0141,-0.0142,-0.0143,0,0,0,0,0,0,0,0.0052,0.005,0.004,0.0034,0.0031,0.0012,0.0008,-0.0017,-0.0046,-0.0013,-0.0016,-0.0017,-0.0089,-0.0098,-0.0103,-0.0141,-0.0139,-0.0142,-0.0144,-0.0145,-0.0243,-0.0244,0,0,0,0,0,0,0.0063,0.0051,0.0041,0.0039,0.004,0.0013,0.0008,0.0008,-0.0045,-0.0053,-0.0016,-0.0019,-0.0092,-0.01,-0.0107,-0.0166,-0.0142,-0.0145,-0.0147,-0.0242,-0.0243,-0.0244,0,0,0,0,0,0,0.0063,0.0062,0.0043,0.0046,0.0042,0.0014,0.0014,0.0008,-0.0015,-0.0046,-0.0056,-0.0033,-0.0093,-0.0103,-0.0151,-0.0168,-0.0146,-0.0149,-0.0241,-0.0243,-0.0244,-0.0249,0,0,0,0,0,0,0.0064,0.0063,0.0062,0.0047,0.0042,0.0029,0.0015,0.0008,-0.0012,-0.0017,-0.0064,-0.0073,-0.0095,-0.0147,-0.0154,-0.0171,-0.0151,-0.024,-0.0242,-0.0243,-0.0248,-0.025,-0.0252,0,0,0,0,0,0.0064,0.0069,0.0062,0.006,0.0043,0.0029,0.0025,0.0001,-0.0012,-0.0023,-0.0063,-0.0072,-0.0162,-0.015,-0.0158,-0.0177,-0.0239,-0.0241,-0.0243,-0.0247,-0.025,-0.0252,0,0,0,0,0,0,0.0068,0.0064,0.0056,0.0057,0.0041,0.0022,0.0012,-0.0003,-0.0041,-0.0052,-0.0085,-0.0097,-0.0146,-0.016,-0.0145,-0.021,-0.0201,-0.0205,-0.0201,-0.0204,-0.0206,-0.0199,-0.0154,0,0,0,0,0,0.0072,0.0076,0.0062,0.0061,0.0054,0.0031,0.0021,0.0004,-0.0027,-0.0044,-0.0079,-0.0118,-0.0157,-0.0179,-0.0213,-0.0246,-0.0249,-0.0263,-0.0265,-0.0267,-0.0268,-0.0285,-0.0289,-0.025,-0.025,-0.025,0,0,0.0075,0.0072,0.0073,0.0062,0.0047,0.003,0.0021,0.0004,-0.0019,-0.0048,-0.0096,-0.0129,-0.0168,-0.0212,-0.0234,-0.0228,-0.028,-0.027,-0.0271,-0.0271,-0.0287,-0.0291,-0.0294,-0.0252,-0.0252,-0.0251,0,0,0.0074,0.0076,0.0072,0.006,0.004,0.0027,0.002,-0.0008,-0.003,-0.0072,-0.0104,-0.0147,-0.0201,-0.0234,-0.0257,-0.029,-0.0293,-0.0302,-0.0308,-0.0325,-0.0328,-0.0331,-0.0337,-0.034,-0.0301,-0.0301,-0.0301,0,0.0075,0.0068,0.0067,0.0053,0.0042,0.0024,0.0007,-0.0015,-0.0059,-0.008,-0.009,-0.0178,-0.021,-0.0266,-0.0283,-0.0295,-0.0301,-0.0293,-0.0327,-0.033,-0.0332,-0.0338,-0.0341,-0.0302,-0.0302,-0.0301,-0.0301,0,0.0064,0.0055,0.0052,0.0031,0.0018,0.0004,-0.0021,-0.0045,-0.007,-0.0096,-0.0155,-0.0199,-0.0248,-0.0268,-0.029,-0.033,-0.0327,-0.0328,-0.0316,-0.0336,-0.0341,-0.0344,-0.0302,-0.0302,-0.0302,-0.0302,0,0,0.0072,0.005,0.0046,0.0032,0.0006,-0.0005,-0.0036,-0.007,-0.0093,-0.0138,-0.0173,-0.0244,-0.0261,-0.0288,-0.0318,-0.034,-0.0365,-0.0343,-0.0343,-0.0341,-0.0396,-0.0381,-0.0383,-0.0371,-0.0372,-0.0372,-0.039,0,0.006,0.0038,0.0028,-0.0,-0.0014,-0.0034,-0.0058,-0.0091,-0.0121,-0.0157,-0.0203,-0.0247,-0.027,-0.0292,-0.0321,-0.0357,-0.0375,-0.036,-0.0383,-0.0383,-0.0361,-0.0387,-0.0375,-0.0392,-0.0393,-0.0394,-0.0394,0,0.0045,0.0035,0.0012,-0.0013,-0.0021,-0.0039,-0.0073,-0.0099,-0.0146,-0.0168,-0.0213,-0.0244,-0.0295,-0.0301,-0.0364,-0.0353,-0.0375,-0.0397,-0.0398,-0.0384,-0.0375,-0.037,-0.04,-0.04,-0.0399,-0.0399,-0.0398,0,0.005,0.0021,0.0007,-0.0002,-0.0032,-0.0047,-0.0065,-0.0105,-0.0122,-0.017,-0.0181,-0.0247,-0.027,-0.0315,-0.0362,-0.0363,-0.0419,-0.042,-0.0427,-0.0425,-0.0429,-0.0426,-0.0457,-0.0457,-0.0457,-0.0457,-0.0457,0,0.0043,0.0028,0.001,0.0001,-0.0014,-0.0041,-0.0062,-0.0087,-0.0119,-0.0132,-0.0182,-0.0198,-0.0274,-0.0315,-0.0359,-0.0403,-0.0413,-0.0433,-0.0433,-0.0431,-0.0428,-0.0431,-0.0428,-0.0457,-0.0457,-0.0457,-0.0457,0,0.0047,0.0033,0.0018,-0.0006,-0.0012,-0.0023,-0.0044,-0.0057,-0.0086,-0.01,-0.0109,-0.0164,-0.0214,-0.0285,-0.0355,-0.0387,-0.0435,-0.0445,-0.0433,-0.0432,-0.043,-0.0427,-0.0455,-0.0455,-0.0455,-0.0454,-0.0454,0,0.0048,0.004,0.0024,0.0025,0.0015,0.0,-0.0005,-0.0036,-0.0042,-0.0072,-0.0073,-0.0126,-0.0165,-0.0245,-0.0329,-0.0413,-0.0423,-0.0444,-0.045,-0.0435,-0.0433,-0.043,-0.0427,-0.0454,-0.0454,-0.0454,-0.0454,0,0.0051,0.0046,0.0039,0.0044,0.0041,0.0038,0.0029,0.0032,0.0005,-0.0017,-0.0027,-0.0081,-0.0138,-0.0223,-0.0293,-0.0354,-0.0433,-0.0442,-0.0443,-0.0448,-0.0433,-0.0431,-0.0429,-0.0453,-0.0453,-0.0453,-0.0453,0,0.0056,0.0057,0.0054,0.0059,0.0064,0.0073,0.0064,0.0063,0.0053,0.0026,0.0025,-0.0045,-0.0095,-0.0192,-0.0256,-0.032,-0.0336,-0.0349,-0.0356,-0.0358,-0.0331,-0.0298,-0.0279,0,0,0,0,0,0.0057,0.0061,0.007,0.0074,0.0086,0.0089,0.0088,0.0078,0.0063,0.0071,0.0049,0.0001,-0.0097,-0.0149,-0.0207,-0.0265,-0.0359,-0.0336,-0.0381,-0.0448,-0.0449,-0.0434,0,0,0,0,0,0,0.0054,0.0063,0.007,0.0092,0.0104,0.0113,0.0115,0.0105,0.0105,0.0086,0.0037,-0.0001,-0.01,-0.0053,-0.02,-0.0225,-0.0259,-0.039,-0.0391,-0.0448,-0.0448,-0.0449,-0.0434,0,0,0,0,0]}]]